Location: Giessen
(50.5800°N, 8.7028°E)
Time: 13:18:25
(UTC+02:00)

ISS - Visible Passes

Search period start: 29 May 2017 00:00
Search period end: 08 June 2017 00:00
Orbit: 402 x 408 km, 51.6° (Epoch: 29 May)

Date Brightness Start Highest point End Pass type
(mag) Time Alt. Az. Time Alt. Az. Time Alt. Az.
29 May -3.9 00:50:40 10° WNW 00:53:59 85° NNE 00:56:00 22° E visible
29 May -2.0 02:27:19 10° W 02:28:36 19° W 02:28:36 19° W visible
29 May -3.8 22:22:00 10° WSW 22:25:19 89° S 22:28:38 10° ENE visible
29 May -3.7 23:58:37 10° W 00:01:56 74° N 00:05:09 11° E visible
30 May -3.3 01:35:10 10° W 01:37:46 41° WSW 01:37:46 41° WSW visible
30 May -3.5 23:06:31 10° W 23:09:50 71° N 23:13:08 10° E visible
31 May -3.9 00:43:05 10° WNW 00:46:23 68° SSW 00:47:06 48° SE visible
31 May -3.6 22:14:25 10° W 22:17:44 74° N 22:21:01 10° E visible
31 May -3.9 23:51:00 10° WNW 23:54:19 88° SSW 23:56:31 20° ESE visible
01 Jun -2.0 01:27:43 10° W 01:29:09 20° WSW 01:29:09 20° WSW visible
01 Jun -3.7 22:58:55 10° W 23:02:14 78° N 23:05:32 10° E visible
02 Jun -3.4 00:35:30 10° W 00:38:38 41° SSW 00:38:38 41° SSW visible
02 Jun -3.5 22:06:48 10° W 22:10:07 71° N 22:13:24 10° E visible
02 Jun -3.8 23:43:21 10° WNW 23:46:37 60° SSW 23:48:09 27° SE visible
03 Jun -1.2 01:20:37 10° WSW 01:20:48 11° WSW 01:20:48 11° WSW visible
03 Jun -3.9 22:51:14 10° WNW 22:54:33 81° SSW 22:57:43 11° ESE visible
04 Jun -2.3 00:28:02 10° W 00:30:21 23° SW 00:30:21 23° SW visible
04 Jun -3.0 23:35:42 10° W 23:38:46 35° SSW 23:39:56 26° SSE visible
05 Jun -3.5 22:43:30 10° WNW 22:46:44 52° SSW 22:49:32 13° SE visible
06 Jun -1.5 00:21:06 10° WSW 00:22:11 12° SW 00:22:11 12° SW visible
06 Jun -2.1 23:28:16 10° W 23:30:46 20° SW 23:31:49 17° S visible
07 Jun -2.6 22:35:50 10° W 22:38:47 30° SSW 22:41:29 11° SSE visible
